User: anonymous   Login
Location: Obersdorf
(47.4079°N, 10.2781°E)
Time: 12:01:10
(UTC+01:00)
Language:

First-Move - Orbit

View from above orbital plane
View from above orbital plane
View from above satellite
View from above satellite

Ground track
Ground track

The orbit data is extracted from the following two-line orbital elements,

1 39439U 13066Z   21334.69554830  .00001542  00000-0  18985-3 0  9993
2 39439  97.6163 312.4307 0063787 334.4233  25.3829 14.82951913432589
Epoch (UTC): 30 November 2021 16:41:35
Eccentricity: 0.0063787
inclination: 97.6163°
perigee height: 575 km
apogee height: 664 km
right ascension of ascending node: 312.4307°
argument of perigee: 334.4233°
revolutions per day: 14.82951913
mean anomaly at epoch: 25.3829°
orbit number at epoch: 43258

The dashed part of the orbit path shows where the satellite is in the earth's shadow,  

DLR